[Iaude] MPEC M135: 2020 MQ3 [a=2.23,e=0.60,i=8.7,H=21.7]

mpec at marsden.cfa.harvard.edu mpec at marsden.cfa.harvard.edu
Mon Jun 29 16:19:48 EDT 2020


M.P.E.C. 2020-M135                                Issued 2020 June 29, 20:18 UT

     The Minor Planet Electronic Circulars contain information on unusual
         minor planets and routine data on comets.  They are published
    on behalf of Division F of the International Astronomical Union by the
          Minor Planet Center, Smithsonian Astrophysical Observatory,
                          Cambridge, MA 02138, U.S.A.

             Prepared using the Tamkin Foundation Computer Network

                              MPC at CFA.HARVARD.EDU
            URL https://www.minorplanetcenter.net/    ISSN 1523-6714

                                    2020 MQ3                                    


Observations:
     K20M03Q KC2020 06 15.55496620 42 49.365-16 01 07.16         22.83GVEM135F52
     K20M03Q  C2020 06 17.51595620 46 45.175-16 09 09.57         22.05GVEM135F51
     K20M03Q  C2020 06 17.52317120 46 46.020-16 09 11.70         21.28GVEM135F51
     K20M03Q  C2020 06 17.53037320 46 46.840-16 09 13.41         22.16GVEM135F51
     K20M03Q  C2020 06 17.53756120 46 47.667-16 09 15.72         21.83GVEM135F51
     K20M03Q* C2020 06 27.57528521 10 04.103-17 17 15.70         21.97wUEM135F51
     K20M03Q  C2020 06 27.58302221 10 05.291-17 17 20.24         21.92wUEM135F51
     K20M03Q  C2020 06 27.59076621 10 06.441-17 17 24.46         21.46wUEM135F51
     K20M03Q ^C2020 06 28.57967121 12 48.448-17 27 04.70         21.44GVEM135568
     K20M03Q ^C2020 06 28.58061821 12 48.599-17 27 05.27         21.43GVEM135568
     K20M03Q ^C2020 06 29.44918221 15 16.814-17 36 05.42         21.43GVEM135568
     K20M03Q ^C2020 06 29.45108021 15 17.124-17 36 06.67         21.32GVEM135568

Observer details:
568 Mauna Kea.  Observers R. Wainscoat, C. Wipper, S. Prunet.  Measurers R.
    Weryk, R. Wainscoat.  3.6-m Canada-France-Hawaii Telescope + CCD.
F51 Pan-STARRS 1, Haleakala.  Observers J. Bulger, K. Chambers, T. Lowe, A.
    Schultz, M. Willman.  Measurers S. Chastel, M. Huber, Y. Ramanjooloo, R.
    Wainscoat, R. Weryk, K. Chambers, T. de Boer, L. Denneau, J. Fairlamb, H.
    Flewelling, C.-C. Lin, E. Magnier.  1.8-m Ritchey-Chretien + CCD.
F52 Pan-STARRS 2, Haleakala.  Observers J. Bulger, K. Chambers, T. Dukes, T.
    Lowe, A. Schultz, M. Willman.  Measurers S. Chastel, M. Huber, Y.
    Ramanjooloo, R. Wainscoat, R. Weryk.  1.8-m Ritchey-Chretien + CCD.

Orbital elements:
2020 MQ3                                                 Earth MOID = 0.0944 AU
Epoch 2020 June 17.0 TT = JDT 2459017.5                 Bell                    
M 333.49501              (2000.0)            P               Q                  
n   0.29643150     Peri.  266.80548     +0.96741277     -0.20724448             
a   2.2276818      Node   105.11946     +0.24669853     +0.90086996             
e   0.5978093      Incl.    8.66684     -0.05702952     +0.38142240             
P   3.32           H   21.77          G   0.15           U   8                  
Residuals in seconds of arc
200615 F52  0.1-  0.0-    200617 F51  0.1-  0.1-    200628 568  0.1+  0.0-
200617 F51  0.1+  0.1+    200627 F51  0.1-  0.1+    200628 568  0.1+  0.0-
200617 F51  0.2+  0.1-    200627 F51  0.0+  0.1-    200629 568  0.0-  0.0+
200617 F51  0.0+  0.2+    200627 F51  0.4-  0.0-    200629 568  0.0-  0.0+

Ephemeris:
2020 MQ3                 a,e,i = 2.23, 0.60, 9                   q = 0.8960
Date    TT    R. A. (2000) Decl.     Delta      r    Elong.  Phase     V
2020 05 30    20 13 43.4 -15 36 18   0.7794  1.6049   126.5    30.5    23.6
...
2020 06 14    20 39 48.4 -15 55 33   0.5729  1.4769   134.9    29.1    22.7
...
2020 06 22    20 56 22.3 -16 33 12   0.4736  1.4082   138.9    28.3    22.1
...
2020 06 28    21 11 13.0 -17 21 07   0.4046  1.3567   141.5    27.8    21.7
2020 06 29    21 13 59.2 -17 31 09   0.3936  1.3482   141.8    27.8    21.6
2020 06 30    21 16 51.6 -17 41 51   0.3827  1.3396   142.2    27.7    21.6
...
2020 07 06    21 36 49.9 -19 01 42   0.3204  1.2887   143.6    27.9    21.1
...
2020 07 14    22 14 43.3 -21 38 33   0.2464  1.2219   142.8    30.2    20.5
...
2020 07 29    00 44 41.3 -27 33 55   0.1513  1.1035   122.2    51.1    19.8

M. P. C. Staff               (C) Copyright 2020 MPC           M.P.E.C. 2020-M135




More information about the Iaude mailing list